Regional Weather Roundup
Issued by NWS Northern Indiana

Home | Current Version | Previous Version | Text Only | Print | Product List | Glossary Off
Versions: 1 2 3 4 5 6 7 8 9 10 11 12 13 14 15 16 17 18 19 20 21 22 23 24 25 26 27 28 29 30 31 32 33 34 35 36 37 38 39 40 41 42 43 44 45 46 47 48 49 50

000
ASUS43 KIWX 161000
RWRIWX

KIWX WEATHER ROUNDUP
NATIONAL WEATHER SERVICE NORTHERN INDIANA
500 AM EST SAT DEC 16 2017

NOTE: "FAIR" INDICATES FEW OR NO CLOUDS BELOW 12,000 FEET WITH NO
SIGNIFICANT WEATHER AND/OR OBSTRUCTIONS TO VISIBILITY.

* THESE STATIONS ARE NOT UNDER NWS QUALITY CONTROL. THEY ALSO MAY NOT
  REPORT WEATHER SUCH AS PRECIPITATION OR FOG.

INZ001>027-161100-
NORTHERN INDIANA

CITY           SKY/WX    TMP DP  RH WIND       PRES   REMARKS
KNOX*          CLOUDY    34  27  75 SW10G18   29.90F WCI  26
SOUTH BEND     CLOUDY    34  25  69 SW15      29.88F WCI  24
GOSHEN         CLOUDY    33  23  66 SW14      29.90S WCI  23
MONTICELLO*    CLOUDY    33  23  65 S14       29.94F WCI  23
WARSAW*        CLOUDY    34  23  64 SW8       29.92R WCI  27
FORT WAYNE     CLOUDY    33  25  72 SW16      29.94F WCI  23
PERU/GRISSOM   CLOUDY    34  24  66 SW16      29.95S WCI  24

$$
INZ028>050-161100-
CENTRAL INDIANA

CITY           SKY/WX    TMP DP  RH WIND       PRES   REMARKS
LAFAYETTE      PTCLDY    33  24  69 S6        29.96F WCI  28
KOKOMO*        CLOUDY    34  24  67 SW15      29.97F WCI  24
MUNCIE*        CLOUDY    34  24  67 SW12      29.99F WCI  25
INDIANAPOLIS   PTCLDY    32  24  72 S12       30.01F WCI  23

$$
MIZ043>046-050>051-056>058-064>065-071>073-077>080-161100-
SOUTHWEST LOWER MICHIGAN

CITY           SKY/WX    TMP DP  RH WIND       PRES   REMARKS
BATTLE CREEK   CLOUDY    32  23  69 SW12      29.86S WCI  23
BENTON HARBOR  CLOUDY    37  24  59 SW10      29.85F
COLDWATER*     CLOUDY    33  23  67 SW12G17   29.88S WCI  24
HILLSDALE*     CLOUDY    30  21  69 SW5       29.86F WCI  25
HOLLAND        LGT RAIN  37  31  78 W12       29.84S
GRAND RAPIDS   LGT SNOW  26  25  96 NE5       29.84S VSB 1   WCI  20
KALAMAZOO      FLURRIES  34  24  67 SW10      29.86F WCI  26
STURGIS*       CLOUDY    32  25  74 SW7       29.87S WCI  26
THREE RIVERS*  CLOUDY    35  24  63 SW7       29.87F WCI  29

$$
OHZ001>008-015>018-024>025-161100-
NORTHWEST OHIO

CITY           SKY/WX    TMP DP  RH WIND       PRES   REMARKS
DEFIANCE       CLOUDY    33  23  66 SW13      29.93F WCI  24
FINDLAY        CLOUDY    34  23  64 SW17      29.94F WCI  23
TOLEDO EXPRESS CLOUDY    33  25  72 SW12      29.91F WCI  24
TOLEDO METCALF CLOUDY    32  24  72 SW12      29.93F WCI  23
LIMA           CLOUDY    32  25  75 SW13G22   29.97F WCI  22

$$
AND FOR LAKE MICHIGAN COASTAL AND OPEN LAKE BUOY OBSERVATIONS

STATION/POSITION TEMP    WIND        PRES    VSBY  WAVE
                 AIR SEA DIR/SP/G                  HT/PER
                 (F)     (DEG/KT/KT) (MB)    (MI)  (FT/S)
CALUMET HARBOR    37     190/ 13/ 17 1010.4F
MICHIGAN CITY     37     190/ 16/ 22   N/A
BURNS HARBOR      37     200/ 16/ 21 1011.5F
SAINT JOSEPH      39     220/ 20/ 22 1011.5

$$
&&




USA.gov is the U.S. government's official web portal to all federal, state and local government web resources and services.